Location: Strada George Coșbuc
(47.6577°N, 23.5639°E)
Time: 01:30:25
(UTC+03:00)

ISS - Pass Details

Date: 26 September 2017
Orbit: 401 x 407 km, 51.6° (Epoch: 23 September)

Event Time Altitude Azimuth Distance (km) Brightness Sun altitude
Rises 21:26:16 0° 238° (WSW) 2,312 0.5 -22.3°
Reaches altitude 10° 21:28:21 10° 236° (SW) 1,456 -0.6 -22.7°
Enters shadow 21:29:48 24° 231° (SW) 884 -1.9 -22.9°
